Regional Weather Roundup
Issued by NWS Sioux Falls, SD

Home | Current Version | Previous Version | Graphics & Text | Print | Product List | Glossary On
Versions: 1 2 3 4 5 6 7 8 9 10 11 12 13 14 15 16 17 18 19 20 21 22 23 24 25 26 27 28 29 30 31 32 33 34 35 36 37 38 39 40 41 42 43 44 45 46 47 48 49 50
000
ASUS43 KFSD 222110
RWRFSD

WEATHER ROUNDUP FOR SE SOUTH DAKOTA/SW MINNESOTA/NW IOWA
NATIONAL WEATHER SERVICE SIOUX FALLS SD
300 PM CST SUN JAN 22 2017

NOTE: "FAIR" INDICATES FEW OR NO CLOUDS BELOW 12,000 FEET WITH NO
SIGNIFICANT WEATHER AND OR OBSTRUCTIONS TO VISIBILITY.


SDZ038>040-050-052>070-222200-
SOUTHEAST SOUTH DAKOTA

CITY           SKY/WX    TMP DP  RH WIND       PRES   REMARKS
BROOKINGS      CLOUDY    28  27  96 NW9       29.78S FOG     WCI  19
CHAMBERLAIN    SUNNY     34  27  77 W13G18    29.86R WCI  25
HURON          CLOUDY    30  28  92 W13       29.83R WCI  20
MADISON        CLOUDY    27  27 100 NW14        N/A  WCI  15
MITCHELL       CLOUDY    32  28  85 NW16      29.85S WCI  21
SIOUX FALLS    CLOUDY    29  28  96 W12       29.81R FOG     WCI  19
WINNER         FAIR      39  27  62 NW17      29.85R
YANKTON        SUNNY     37  28  70 NW10      29.81S
$$

MNZ071-072-080-081-089-090-097-098-222200-
SOUTHWEST MINNESOTA

CITY           SKY/WX    TMP DP  RH WIND       PRES   REMARKS
FAIRMONT       CLOUDY    38  36  92 NW13      29.75R
JACKSON        CLOUDY    34  34 100 NW13      29.76R FOG     WCI  25
LUVERNE        CLOUDY    32  28  86 NW12      29.79R FOG     WCI  23
MARSHALL       CLOUDY    33  30  88 NW15      29.78R WCI  23
MONTEVIDEO     CLOUDY    34  34 100 NW12G17   29.79R FOG     WCI  25
PIPESTONE      CLOUDY    30  30 100 NW12      29.77R FOG     WCI  21
REDWOOD FALLS  CLOUDY    35  32  88 NW10      29.76S FOG     WCI  27
TRACY          CLOUDY    35  34  94 W7        29.77R WCI  29
WINDOM         CLOUDY    36  36 100 NW13      29.75S FOG
WORTHINGTON    CLOUDY    35  33  92 NW14      29.77R WCI  26
$$

IAZ001>003-012>014-020>022-031-032-NEZ013-014-SDZ071-222200-
NORTHWEST IOWA

CITY           SKY/WX    TMP DP  RH WIND       PRES   REMARKS
CHEROKEE       CLOUDY    36  35  97 NW8       29.78R FOG
DENISON        CLOUDY    36  34  93 NW12      29.77R
ESTHERVILLE    CLOUDY    37  37 100 NW13      29.74S
LE MARS        CLOUDY    34  32  93 NW10G16   29.82R FOG     WCI  26
ORANGE CITY    CLOUDY    34  34 100 NW12G17   29.79R FOG     WCI  25
SHELDON        CLOUDY    34  34 100 NW13      29.77R WCI  25
SIOUX CITY     PTSUNNY   37  32  82 NW15      29.81R
SPENCER          N/A    N/A N/A N/A MISG      29.76R
STORM LAKE     CLOUDY    36  34  93 NW14      29.76R
$$

ABBREVIATIONS USED IN REMARKS
   TC - TEMPERATURE IN CELSIUS
  WCI - WIND CHILL INDEX
   HX - HEAT INDEX
  VSB - VISIBILITY





USA.gov is the U.S. government's official web portal to all federal, state and local government web resources and services.